Weather History for Scottsboro, AL

Change the Weather History Date:

Wednesday, July 31, 2013

  Actual Average (KHSV) Record (KHSV)
Temperature  
Mean Temperature 75 °F 81 °F  
Max Temperature 82 °F 91 °F 102 °F (1986)
Min Temperature 68 °F 70 °F 58 °F (1965)
Degree Days  
Heating Degree Days 0 0  
Month to date heating degree days 0  
Since 1 June heating degree days 1  
Since 1 July heating degree days 0  
Cooling Degree Days 10 16  
Month to date cooling degree days 482  
Year to date cooling degree days 1125  
Since 1 June cooling degree days 862  
Growing Degree Days 25 (Base 50)    
Moisture  
Dew Point 70 °F    
Average Humidity 90    
Maximum Humidity 100    
Minimum Humidity 70    
Precipitation  
Precipitation 1.58 in 0.12 in 1.82 in (1927)
Month to date precipitation 4.05  
Year to date precipitation 32.71  
Snow  
Snow 0.00 in - - ()
Month to date snowfall  
Since 1 June snowfall  
Since 1 July snowfall  
Snow Depth -    
Sea Level Pressure  
Sea Level Pressure 30.07 in    
Wind  
Wind Speed 4 mph (SSW)    
Max Wind Speed 12 mph    
Max Gust Speed 23 mph    
Visibility 8 miles    
Events Rain , Thunderstorm    
T = Trace of Precipitation, MM = Missing Value Source: NWS Daily Summary

Daily Weather History Graph

Daily Weather History Graph

Search for Another Location

Airport:

Trip Planner

Search our weather history database for the weather conditions in past years. The results will help you decide how hot, cold, wet, or windy it might be!

Date:

Astronomy

Jul. 31, 2013 Rise Set
Actual Time 5:53 AM CDT 7:46 PM CDT
Civil Twilight 5:25 AM CDT 8:14 PM CDT
Nautical Twilight 4:52 AM CDT 8:47 PM CDT
Astronomical Twilight 4:16 AM CDT 9:23 PM CDT
Moon 12:48 AM CDT (7/31) 3:01 PM CDT (7/31)
Length of Visible Light 14h 48m
Length of Day
13h 53m
Waning Crescent, 31% of the Moon is Illuminated
Jul 31
Waning Crescent
Aug 6
New
Aug 14
First Quarter
Aug 20
Full
Aug 28
Last Quarter

Hourly Weather History & Observations

Time (CDT) Temp. Heat Index Dew Point Humidity Pressure Visibility Wind Dir Wind Speed Gust Speed Precip Events Conditions
12:15 AM 68.0 °F - 66.2 °F 94% 30.16 in 8.0 mi SE 6.9 mph - 0.01 in Rain Light Rain
12:35 AM 68.0 °F - 66.2 °F 94% 30.15 in 10.0 mi ESE 3.5 mph - 0.01 in Rain Light Rain
12:55 AM 68.0 °F - 66.2 °F 94% 30.14 in 10.0 mi North 4.6 mph - 0.01 in   Mostly Cloudy
1:15 AM 68.0 °F - 66.2 °F 94% 30.14 in 10.0 mi Calm Calm - N/A   Overcast
1:55 AM 68.0 °F - 68.0 °F 100% 30.12 in 7.0 mi ENE 4.6 mph - N/A   Overcast
2:15 AM 68.0 °F - 68.0 °F 100% 30.13 in 10.0 mi NW 5.8 mph - 0.01 in   Overcast
2:35 AM 68.0 °F - 68.0 °F 100% 30.12 in 10.0 mi NNE 4.6 mph - 0.01 in   Overcast
2:55 AM 68.0 °F - 68.0 °F 100% 30.12 in 9.0 mi NNE 8.1 mph - 0.01 in Rain , Thunderstorm Light Rain
3:15 AM 69.8 °F - 68.0 °F 94% 30.15 in 1.5 mi NW 8.1 mph 23.0 mph 0.18 in Rain , Thunderstorm Thunderstorms and Rain
3:35 AM 68.0 °F - 68.0 °F 100% 30.10 in 5.0 mi ENE 5.8 mph - 0.28 in Rain Rain
3:55 AM 68.0 °F - 68.0 °F 100% 30.08 in 10.0 mi ESE 9.2 mph - 0.28 in   Overcast
4:15 AM 68.0 °F - 68.0 °F 100% 30.08 in 10.0 mi NNW 3.5 mph - N/A   Mostly Cloudy
4:35 AM 69.8 °F - 68.0 °F 94% 30.08 in 10.0 mi Calm Calm - N/A   Overcast
4:55 AM 68.0 °F - 68.0 °F 100% 30.09 in 10.0 mi NE 3.5 mph - N/A   Overcast
5:15 AM 69.8 °F - 68.0 °F 94% 30.11 in 10.0 mi North 8.1 mph - N/A   Overcast
5:35 AM 68.0 °F - 68.0 °F 100% 30.14 in 0.8 mi NW 11.5 mph 16.1 mph 0.39 in Thunderstorm Overcast
5:55 AM 68.0 °F - 68.0 °F 100% 30.14 in 2.0 mi ESE 5.8 mph - 0.58 in Rain Rain
6:15 AM 68.0 °F - 68.0 °F 100% 30.15 in 5.0 mi East 3.5 mph - 0.07 in Rain Light Rain
6:35 AM 68.0 °F - 68.0 °F 100% 30.15 in 3.0 mi ENE 3.5 mph - 0.14 in Rain , Thunderstorm Light Rain
6:55 AM 68.0 °F - 68.0 °F 100% 30.15 in 2.5 mi East 5.8 mph - 0.22 in Rain Light Rain
7:15 AM 68.0 °F - 68.0 °F 100% 30.14 in 3.0 mi Calm Calm - 0.01 in Rain Light Rain
7:35 AM 68.0 °F - 68.0 °F 100% 30.14 in 5.0 mi SE 4.6 mph - 0.02 in Rain Light Rain
7:55 AM 68.0 °F - 68.0 °F 100% 30.15 in 10.0 mi North 3.5 mph - 0.03 in   Overcast
8:15 AM 68.0 °F - 68.0 °F 100% 30.15 in 4.0 mi Calm Calm - 0.02 in Rain Light Rain
8:35 AM 68.0 °F - 68.0 °F 100% 30.13 in 4.0 mi SSE 3.5 mph - 0.05 in Rain Light Rain
8:55 AM 69.8 °F - 68.0 °F 94% 30.13 in 10.0 mi Calm Calm - 0.06 in   Overcast
9:15 AM 71.6 °F - 69.8 °F 94% 30.12 in 5.0 mi Calm Calm - N/A   Mostly Cloudy
9:35 AM 71.6 °F - 69.8 °F 94% 30.11 in 9.0 mi Calm Calm - 0.01 in Rain Light Rain
9:55 AM 71.6 °F - 68.0 °F 88% 30.11 in 10.0 mi Calm Calm - 0.01 in   Mostly Cloudy
10:15 AM 71.6 °F - 69.8 °F 94% 30.11 in 10.0 mi North 3.5 mph - N/A   Overcast
10:35 AM 71.6 °F - 69.8 °F 94% 30.11 in 7.0 mi Calm Calm - N/A Rain Light Rain
10:55 AM 73.4 °F - 69.8 °F 88% 30.11 in 10.0 mi Calm Calm - N/A   Mostly Cloudy
11:15 AM 73.4 °F - 71.6 °F 94% 30.11 in 10.0 mi Calm Calm - N/A   Mostly Cloudy
11:35 AM 73.4 °F - 69.8 °F 88% 30.11 in 10.0 mi Calm Calm - N/A   Overcast
11:55 AM 75.2 °F - 69.8 °F 83% 30.10 in 10.0 mi Calm Calm - N/A Rain Light Rain
12:15 PM 75.2 °F - 69.8 °F 83% 30.10 in 10.0 mi WSW 3.5 mph - N/A   Overcast
12:35 PM 75.2 °F - 69.8 °F 83% 30.09 in 10.0 mi Calm Calm - N/A   Overcast
12:55 PM 75.2 °F - 68.0 °F 78% 30.08 in 10.0 mi SW 4.6 mph - N/A   Overcast
1:15 PM 75.2 °F - 69.8 °F 83% 30.08 in 10.0 mi South 3.5 mph - N/A   Overcast
1:35 PM 75.2 °F - 69.8 °F 83% 30.07 in 10.0 mi SSE 3.5 mph - N/A   Mostly Cloudy
1:55 PM 77.0 °F - 71.6 °F 83% 30.06 in 10.0 mi South 5.8 mph - N/A   Scattered Clouds
2:15 PM 77.0 °F - 71.6 °F 83% 30.04 in 10.0 mi SSW 5.8 mph - N/A   Partly Cloudy
2:35 PM 80.6 °F 84.6 °F 71.6 °F 74% 30.03 in 10.0 mi SSW 6.9 mph - N/A   Partly Cloudy
2:55 PM 80.6 °F 84.6 °F 71.6 °F 74% 30.02 in 10.0 mi SW 4.6 mph - N/A   Mostly Cloudy
3:15 PM 80.6 °F 84.6 °F 71.6 °F 74% 30.01 in 10.0 mi Calm Calm - N/A   Overcast
3:35 PM 80.6 °F 84.6 °F 71.6 °F 74% 30.01 in 10.0 mi WNW 3.5 mph - N/A   Mostly Cloudy
3:55 PM 82.4 °F 87.2 °F 71.6 °F 70% 30.00 in 10.0 mi WSW 6.9 mph - N/A   Mostly Cloudy
4:15 PM 82.4 °F 87.2 °F 71.6 °F 70% 29.99 in 10.0 mi WSW 4.6 mph - N/A   Scattered Clouds
4:35 PM 82.4 °F 88.2 °F 73.4 °F 74% 29.99 in 10.0 mi SW 8.1 mph - N/A   Mostly Cloudy
4:55 PM 82.4 °F 88.2 °F 73.4 °F 74% 29.98 in 10.0 mi SW 5.8 mph - N/A   Mostly Cloudy
5:15 PM 82.4 °F 88.2 °F 73.4 °F 74% 29.97 in 10.0 mi SSW 3.5 mph - N/A   Overcast
5:35 PM 82.4 °F 88.2 °F 73.4 °F 74% 29.97 in 10.0 mi SW 4.6 mph - N/A   Mostly Cloudy
5:55 PM 80.6 °F 85.4 °F 73.4 °F 79% 29.97 in 10.0 mi WSW 3.5 mph - N/A   Overcast
6:15 PM 80.6 °F 85.4 °F 73.4 °F 79% 29.98 in 10.0 mi SW 3.5 mph - N/A   Scattered Clouds
6:35 PM 80.6 °F 85.4 °F 73.4 °F 79% 29.98 in 10.0 mi SSW 3.5 mph - N/A Thunderstorm Mostly Cloudy
6:55 PM 80.6 °F 85.4 °F 73.4 °F 79% 29.97 in 10.0 mi South 4.6 mph - N/A Thunderstorm Mostly Cloudy
7:15 PM 78.8 °F - 73.4 °F 83% 29.98 in 10.0 mi Calm Calm - N/A Thunderstorm Mostly Cloudy
7:35 PM 78.8 °F - 73.4 °F 83% 29.99 in 10.0 mi Calm Calm - N/A Thunderstorm Mostly Cloudy
7:55 PM 78.8 °F - 73.4 °F 83% 29.98 in 10.0 mi Calm Calm - N/A Thunderstorm Overcast
8:15 PM 77.0 °F - 73.4 °F 89% 29.99 in 10.0 mi South 3.5 mph - N/A Rain , Thunderstorm Light Rain
8:35 PM 75.2 °F - 71.6 °F 89% 30.00 in 5.0 mi SW 6.9 mph 19.6 mph 0.04 in Rain , Thunderstorm Light Rain
8:55 PM 73.4 °F - 71.6 °F 94% 30.00 in 8.0 mi South 4.6 mph - 0.07 in Rain , Thunderstorm Light Rain
9:15 PM 73.4 °F - 71.6 °F 94% 30.01 in 10.0 mi SE 5.8 mph - N/A Thunderstorm Overcast
9:35 PM 73.4 °F - 71.6 °F 94% 30.02 in 5.0 mi SSW 5.8 mph - 0.02 in Rain Rain
9:55 PM 73.4 °F - 71.6 °F 94% 30.01 in 10.0 mi SW 4.6 mph - 0.02 in Thunderstorm Mostly Cloudy
10:15 PM 73.4 °F - 71.6 °F 94% 30.02 in 10.0 mi Calm Calm - N/A Thunderstorm Thunderstorm
10:35 PM 73.4 °F - 71.6 °F 94% 30.03 in 2.0 mi WSW 3.5 mph - 0.15 in Rain , Thunderstorm Light Rain
10:55 PM 73.4 °F - 71.6 °F 94% 30.03 in 2.0 mi SSE 4.6 mph - 0.28 in Rain , Thunderstorm Rain
11:15 PM 71.6 °F - 71.6 °F 100% 30.01 in 7.0 mi SSE 4.6 mph - 0.01 in Rain , Thunderstorm Light Rain
11:35 PM 71.6 °F - 71.6 °F 100% 30.00 in 10.0 mi Calm Calm - 0.01 in   Mostly Cloudy
11:55 PM 71.6 °F - 71.6 °F 100% 29.99 in 10.0 mi West 4.6 mph - 0.01 in Thunderstorm Scattered Clouds